Location: D�derode
(51.8092°N, 10.1065°E)
Time: 01:13:53
(UTC+00:00)

Cosmos 1812 - Pass Details

Date: 24 April 2021
Orbit: 516 x 519 km, 82.5° (Epoch: 10 May)

Event Time Altitude Azimuth Distance (km) Brightness Sun altitude
Exits shadow 21:44:17 14° 69° (ENE) 1,506 5.0 -21.9°
Drops below altitude 10° 21:45:41 10° 48° (NE) 1,764 5.6 -22.0°
Sets 21:48:31 0° 26° (NNE) 2,659 6.9 -22.2°
